Regional Weather Roundup
Issued by NWS

Home | Current Version | Previous Version | Text Only | Print | Product List | Glossary On
Versions: 1 2 3 4 5 6 7 8 9 10 11 12 13 14 15 16 17 18 19 20 21 22 23 24 25 26 27 28 29 30 31 32 33 34 35 36 37 38 39 40 41 42 43 44 45 46 47 48 49 50
000
ASUS43 KMKX 251500
RWRWI

WISCONSIN REGIONAL WEATHER ROUNDUP
NATIONAL WEATHER SERVICE MILWAUKEE/SULLIVAN WI
1000 AM CDT SAT OCT 25 2014

NOTE: "FAIR" INDICATES FEW OR NO CLOUDS BELOW 12,000 FEET WITH NO
SIGNIFICANT WEATHER AND/OR OBSTRUCTIONS TO VISIBILITY.

WIZ001-002-006>008-014>016-023>028-251600-
NORTHWEST WISCONSIN

CITY           SKY/WX    TMP DP  RH WIND       PRES   REMARKS
SUPERIOR ARPT  SUNNY     51  33  50 W12G17    29.94S
ASHLAND        SUNNY     53  34  48 W13G24    29.91R
HAYWARD        SUNNY     51  32  48 NW8G22    29.94R
SIREN          SUNNY     51  34  53 NW10G17   29.99R
CUMBERLAND     SUNNY     50  32  50 NW15G21   29.98R
RICE LAKE      SUNNY     51  36  55 W9        29.98S
CHETEK         SUNNY     52  37  56 W10       29.97R
LADYSMITH      SUNNY     53  35  50 NW16      29.95R
EAU CLAIRE     SUNNY     54  36  50 NW15      29.98R
MENOMONIE      SUNNY     54  35  49 W15       29.99R
NEW RICHMOND   SUNNY     52  34  49 NW15      30.01R
OSCEOLA        SUNNY     52  35  51 W10G17    30.04R
$$

WIZ003>005-009-010-017-018-251600-
NORTH CENTRAL WISCONSIN

CITY           SKY/WX    TMP DP  RH WIND       PRES   REMARKS
MANITOWISH WTR SUNNY     49  34  58 W20G26    29.86R
ARBOR VITAE      N/A     52  38  59 NW14G25   29.86R
WOODRUFF         N/A     52  38  59 NW14G25   29.86R
RHINELANDER    SUNNY     51  33  50 NW16G29   29.86R
EAGLE RIVER    SUNNY     50  33  51 NW17G24   29.83R
LAND O LAKES   SUNNY     50  33  51 NW17G28   29.83R
PHILLIPS       SUNNY     49  35  56 NW10G24   29.89R
TOMAHAWK       SUNNY     51  35  54 W13G21    29.88R
MEDFORD        SUNNY     50  36  59 W12G22    29.91R
MERRILL        SUNNY     53  35  50 NW15G22   29.88R
$$

WIZ029-030-035-036-043>047-251600-
CENTRAL WISCONSIN

CITY           SKY/WX    TMP DP  RH WIND       PRES   REMARKS
WAUSAU         SUNNY     54  36  50 W18G25    29.88R
MOSINEE        SUNNY     52  37  58 NW18G26   29.90R
MARSHFIELD     SUNNY     54  38  54 NW17G25   29.92R
STEVENS POINT  SUNNY     52  38  57 W12G21    29.90S
WAUPACA        SUNNY     58  41  53 W12G18    29.89S
WAUTOMA        NOT AVBL
WISC RAPIDS    SUNNY     56  38  50 NW16G23   29.94R
CAMP DOUGLAS   NOT AVBL
$$

WIZ011>013-019>022-031-037>040-048>050-251600-
NORTHEAST WISCONSIN

CITY           SKY/WX    TMP DP  RH WIND       PRES   REMARKS
ANTIGO         SUNNY     51  37  58 NW18G26   29.86R
SHAWANO        SUNNY     56  42  59 W8G22     29.85S
OCONTO         SUNNY     55  43  63 W16G22    29.81R
STURGEON BAY   SUNNY     55  43  62 W16G22    29.80S
GREEN BAY      SUNNY     58  43  57 W16       29.85R
MANITOWOC      NOT AVBL
APPLETON       SUNNY     55  46  71 W14       29.88S
CLINTONVILLE   SUNNY     55  41  58 W8        29.86R
OSHKOSH        SUNNY     57  44  62 W10G21    29.89R
$$

WIZ032>034-041-042-053>061-251600-
SOUTHWEST WISCONSIN

CITY           SKY/WX    TMP DP  RH WIND       PRES   REMARKS
LA CROSSE      SUNNY     59  42  53 NW12      30.00R
SPARTA         SUNNY     57  38  49 W8        29.98S
VIROQUA        SUNNY     55  43  65 NW8       30.00R
BOSCOBEL       SUNNY     59  47  64 W3        30.01R
PRAIRIE DU CHI SUNNY     56  44  65 W5        30.01S
PLATTEVILLE    SUNNY     57  50  77 W9        30.02R
$$

WIZ056-057-062-063-064-067-068-251600-
SOUTH CENTRAL WISCONSIN

CITY           SKY/WX    TMP DP  RH WIND       PRES   REMARKS
REEDSBURG      SUNNY     56  43  61 W7        29.97R
BARABOO/DELLS  SUNNY     57  42  56 W9        29.97R
LONE ROCK      NOT AVBL
MINERAL POINT  SUNNY     57  48  72 W7        30.00R
MADISON        MOSUNNY   60  48  64 W8        29.97R
MIDDLETON      SUNNY     60  49  67 W13       29.97R
WATERTOWN      SUNNY     58  46  66 NW10      29.94R
MONROE         SUNNY     57  50  77 W12       29.98R
JANESVILLE     NOT AVBL
$$

WIZ051-052-058>065-066-070>072-251600-
SOUTHEAST WISCONSIN

CITY           SKY/WX    TMP DP  RH WIND       PRES   REMARKS
MILWAUKEE      MOSUNNY   61  46  57 NW10      29.91R
WAUKESHA       SUNNY     57  46  67 W9        29.94R
MILWAUKEE/TIMM NOT AVBL
RACINE         SUNNY     61  49  64 W12       29.93R
BURLINGTON     SUNNY     58  48  67 NW12      29.94R
KENOSHA        SUNNY     62  50  64 NW14      29.92R
FOND DU LAC    SUNNY     58  42  55 W15G23    29.91R
SHEBOYGAN      SUNNY     59  44  57 NW15G25   29.89R
WEST BEND      SUNNY     57  45  62 W16       29.91R
JUNEAU         SUNNY     56  47  71 W7        29.94R
$$

LSZ147-162-251600-
LAKE SUPERIOR

STATION/POSITION TIME  TEMP    WIND        PRES    WAVE
                       AIR SEA DIR/SP/G            HT/PER
                 (UTC) (F)     (DEG/KT/KT) (MB)    (FT/S)
W MID LAKE BUOY  1350   49 46  260/ 19/ 23 1007.5R   5/ 5
DEVILS ISLAND    1400   50     270/ 24/ 27 1010.7R
PORT WING        1400   51     260/ 15/ 23 1012.9R
SAXON HARBOR     1400   53      CALM  /  8 1011.5R
$$

LMZ867-665-643>646-251600-
LAKE MICHIGAN

STATION/POSITION TIME  TEMP    WIND        PRES    WAVE
                       AIR SEA DIR/SP/G            HT/PER
                 (UTC) (F)     (DEG/KT/KT) (MB)    (FT/S)
CHAMBERS ISLAND  1400   55     210/  7/ 13 1008.5R
N MID LAKE BUOY  1350   53 51  260/ 16/ 17 1006.9R   3/ 5
NORTHPORT PIER   1400   57     270/  6/ 15 1007.8S
ALGOMA LAKESHORE 1256          270/  8/ 12   N/A
KEWAUNEE LAKESHO 1400   56     290/  7/ 14 1009.1R
SHEBOYGAN LAKESH 1400   57 51  280/ 10/ 12 1011.7R
PORT WASHINGTON  1400   59     290/  6/ 11 1012.9
ATWATER BUOY     1400   56     270/  8/ 10 1013.6R
MILWAUKEE LAKESH 1400   58     300/  9/ 13   N/A
S MID LAKE BUOY  1350   56 54  260/ 12/ 14 1011.8R   1/ 3
KENOSHA   LAKESH 1400   58     290/ 11/ 17 1012.5R
$$

TC  - TEMPERATURE IN CELSIUS
VSB - VISIBILITY IN STATUTE MILES
WCI - WIND CHILL INDEX
HX  - HEAT INDEX




USA.gov is the U.S. government's official web portal to all federal, state and local government web resources and services.